Time,TemperatureF,DewpointF,PressureIn,WindDirection,WindDirectionDegrees,WindSpeedMPH,WindSpeedGustMPH,Humidity,HourlyPrecipIn,Conditions,Clouds,dailyrainin,SolarRadiationWatts/m^2,SoftwareType,DateUTC
2013-01-20 00:02:00,39.0,39.2,30.12,NNW,336,1.0,5.0,31,0.00,,,0.01,0.0,meteohub,2013-01-20 05:02:00,
2013-01-20 00:07:00,38.8,39.2,30.12,North,355,3.0,5.0,31,0.00,,,0.00,0.0,meteohub,2013-01-20 05:07:00,
2013-01-20 00:12:00,38.1,39.2,30.12,WNW,294,0.0,5.0,31,0.00,,,0.00,0.0,meteohub,2013-01-20 05:12:00,
2013-01-20 00:17:00,37.2,39.2,30.12,North,355,5.0,5.0,31,0.00,,,0.00,0.0,meteohub,2013-01-20 05:17:00,
2013-01-20 00:22:00,37.8,39.2,30.12,NNE,15,1.0,5.0,31,0.00,,,0.00,0.0,meteohub,2013-01-20 05:22:00,
2013-01-20 00:27:00,38.1,39.2,30.12,North,355,2.0,5.0,31,0.00,,,0.00,0.0,meteohub,2013-01-20 05:27:00,
2013-01-20 00:32:00,38.1,39.2,30.12,North,355,0.0,5.0,31,0.00,,,0.00,0.0,meteohub,2013-01-20 05:32:00,
2013-01-20 00:37:00,37.8,39.2,30.12,NNW,333,2.0,4.0,31,0.00,,,0.00,0.0,meteohub,2013-01-20 05:37:00,
2013-01-20 00:42:00,37.8,39.2,30.12,North,9,2.0,5.0,31,0.00,,,0.00,0.0,meteohub,2013-01-20 05:42:00,
2013-01-20 00:47:00,38.1,39.2,30.12,NNW,344,4.0,5.0,31,0.00,,,0.00,0.0,meteohub,2013-01-20 05:47:00,
2013-01-20 00:52:00,38.3,39.2,30.12,North,355,1.0,7.0,31,0.00,,,0.00,0.0,meteohub,2013-01-20 05:52:00,
2013-01-20 00:57:00,38.5,39.2,30.12,NNW,344,2.0,7.0,31,0.00,,,0.00,0.0,meteohub,2013-01-20 05:57:00,
2013-01-20 01:02:00,38.5,39.2,30.12,NNW,329,0.0,7.0,31,0.00,,,0.00,0.0,meteohub,2013-01-20 06:02:00,
2013-01-20 01:07:00,38.5,39.2,30.12,NNW,333,0.0,5.0,31,0.00,,,0.00,0.0,meteohub,2013-01-20 06:07:00,
2013-01-20 01:12:00,38.1,39.2,30.12,NNW,333,1.0,3.0,31,0.00,,,0.00,0.0,meteohub,2013-01-20 06:12:00,
2013-01-20 01:17:00,37.8,39.2,30.12,NNW,333,0.0,2.0,31,0.00,,,0.00,0.0,meteohub,2013-01-20 06:17:00,
2013-01-20 01:22:00,37.4,39.2,30.12,NNW,333,0.0,2.0,31,0.00,,,0.00,0.0,meteohub,2013-01-20 06:22:00,
2013-01-20 01:27:00,37.2,39.2,30.11,NNW,333,2.0,2.0,31,0.00,,,0.00,0.0,meteohub,2013-01-20 06:27:00,
2013-01-20 01:32:00,37.0,39.2,30.11,North,5,0.0,2.0,31,0.00,,,0.00,0.0,meteohub,2013-01-20 06:32:00,
2013-01-20 01:37:00,37.0,39.2,30.12,NNW,343,2.0,2.0,31,0.00,,,0.00,0.0,meteohub,2013-01-20 06:37:00,
2013-01-20 01:42:00,37.8,39.2,30.12,North,355,3.0,4.0,31,0.00,,,0.00,0.0,meteohub,2013-01-20 06:42:00,
2013-01-20 01:47:00,37.9,39.2,30.12,North,355,0.0,4.0,31,0.00,,,0.00,0.0,meteohub,2013-01-20 06:47:00,
2013-01-20 01:52:00,37.9,39.2,30.12,North,355,0.0,4.0,31,0.00,,,0.00,0.0,meteohub,2013-01-20 06:52:00,
2013-01-20 01:57:00,37.8,39.2,30.11,West,272,0.0,4.0,31,0.00,,,0.00,0.0,meteohub,2013-01-20 06:57:00,
2013-01-20 02:02:00,37.2,39.2,30.11,North,350,2.0,3.0,31,0.00,,,0.00,0.0,meteohub,2013-01-20 07:02:00,
2013-01-20 02:07:00,37.0,39.0,30.11,NNW,348,1.0,3.0,31,0.00,,,0.00,0.0,meteohub,2013-01-20 07:07:00,
2013-01-20 02:17:00,37.0,39.0,30.11,North,355,2.0,4.0,31,0.00,,,0.00,0.0,meteohub,2013-01-20 07:17:00,
2013-01-20 02:22:00,37.0,39.0,30.11,NNE,19,1.0,4.0,31,0.00,,,0.00,0.0,meteohub,2013-01-20 07:22:00,
2013-01-20 02:27:00,37.0,39.0,30.11,North,355,2.0,4.0,31,0.00,,,0.00,0.0,meteohub,2013-01-20 07:27:00,
2013-01-20 02:32:00,37.0,39.0,30.11,North,355,3.0,4.0,31,0.00,,,0.00,0.0,meteohub,2013-01-20 07:32:00,
2013-01-20 02:37:00,37.0,39.0,30.11,North,355,4.0,4.0,31,0.00,,,0.00,0.0,meteohub,2013-01-20 07:37:00,
2013-01-20 02:42:00,37.0,38.3,30.11,North,355,3.0,4.0,30,0.00,,,0.00,0.0,meteohub,2013-01-20 07:42:00,
2013-01-20 02:47:00,37.2,38.3,30.11,NNE,20,3.0,5.0,30,0.00,,,0.00,0.0,meteohub,2013-01-20 07:47:00,
2013-01-20 02:52:00,37.0,38.3,30.10,North,0,2.0,5.0,30,0.00,,,0.00,0.0,meteohub,2013-01-20 07:52:00,
2013-01-20 02:57:00,36.7,38.3,30.10,North,355,3.0,5.0,30,0.00,,,0.00,0.0,meteohub,2013-01-20 07:57:00,
2013-01-20 03:02:00,36.7,38.3,30.10,North,355,3.0,5.0,30,0.00,,,0.00,0.0,meteohub,2013-01-20 08:02:00,
2013-01-20 03:07:00,36.5,38.3,30.10,North,355,4.0,5.0,30,0.00,,,0.00,0.0,meteohub,2013-01-20 08:07:00,
2013-01-20 03:12:00,36.7,38.3,30.10,North,9,3.0,5.0,30,0.00,,,0.00,0.0,meteohub,2013-01-20 08:12:00,
2013-01-20 03:17:00,36.7,38.3,30.10,North,355,2.0,5.0,30,0.00,,,0.00,0.0,meteohub,2013-01-20 08:17:00,
2013-01-20 03:27:00,36.5,38.3,30.10,NW,320,1.0,5.0,30,0.00,,,0.00,0.0,meteohub,2013-01-20 08:27:00,
2013-01-20 03:32:00,36.3,38.3,30.10,North,11,3.0,5.0,30,0.00,,,0.00,0.0,meteohub,2013-01-20 08:32:00,
2013-01-20 03:37:00,36.3,39.0,30.10,NNE,19,3.0,5.0,31,0.00,,,0.00,0.0,meteohub,2013-01-20 08:37:00,
2013-01-20 03:42:00,36.5,39.0,30.10,NNE,20,1.0,5.0,31,0.00,,,0.00,0.0,meteohub,2013-01-20 08:42:00,
2013-01-20 03:47:00,36.3,38.3,30.10,North,9,3.0,5.0,30,0.00,,,0.00,0.0,meteohub,2013-01-20 08:47:00,
2013-01-20 03:52:00,36.3,38.3,30.10,NNE,17,5.0,5.0,30,0.00,,,0.00,0.0,meteohub,2013-01-20 08:52:00,
2013-01-20 03:57:00,36.3,39.0,30.10,North,5,4.0,5.0,31,0.00,,,0.00,0.0,meteohub,2013-01-20 08:57:00,
2013-01-20 04:02:00,36.3,38.3,30.10,North,355,1.0,6.0,30,0.00,,,0.00,0.0,meteohub,2013-01-20 09:02:00,
2013-01-20 04:07:00,36.1,38.3,30.09,North,0,2.0,6.0,30,0.00,,,0.00,0.0,meteohub,2013-01-20 09:07:00,
2013-01-20 04:12:00,35.8,38.3,30.10,North,355,2.0,6.0,30,0.00,,,0.00,0.0,meteohub,2013-01-20 09:12:00,
2013-01-20 04:17:00,35.8,38.3,30.10,North,355,2.0,4.0,30,0.00,,,0.00,0.0,meteohub,2013-01-20 09:17:00,
2013-01-20 04:22:00,35.8,38.3,30.10,NNW,329,3.0,4.0,30,0.00,,,0.00,0.0,meteohub,2013-01-20 09:22:00,
2013-01-20 04:32:00,35.6,38.3,30.10,WNW,292,2.0,5.0,30,0.00,,,0.00,0.0,meteohub,2013-01-20 09:32:00,
2013-01-20 04:37:00,34.9,38.3,30.09,NW,318,0.0,5.0,30,0.00,,,0.00,0.0,meteohub,2013-01-20 09:37:00,
2013-01-20 04:47:00,34.2,38.3,30.10,NNW,333,1.0,5.0,30,0.00,,,0.00,0.0,meteohub,2013-01-20 09:47:00,
2013-01-20 04:52:00,34.3,38.3,30.10,NNW,328,3.0,4.0,30,0.00,,,0.00,0.0,meteohub,2013-01-20 09:52:00,
2013-01-20 04:57:00,34.5,38.3,30.10,NE,48,4.0,5.0,30,0.00,,,0.00,0.0,meteohub,2013-01-20 09:57:00,
2013-01-20 05:02:00,34.7,38.3,30.10,West,281,3.0,6.0,30,0.00,,,0.00,0.0,meteohub,2013-01-20 10:02:00,
2013-01-20 05:07:00,34.7,38.3,30.10,North,355,3.0,6.0,30,0.00,,,0.00,0.0,meteohub,2013-01-20 10:07:00,
2013-01-20 05:17:00,35.1,38.1,30.10,North,349,1.0,6.0,30,0.00,,,0.00,0.0,meteohub,2013-01-20 10:17:00,
2013-01-20 05:22:00,34.9,38.1,30.09,NNW,348,0.0,5.0,30,0.00,,,0.00,0.0,meteohub,2013-01-20 10:22:00,
2013-01-20 05:32:00,35.1,38.1,30.09,North,355,0.0,5.0,30,0.00,,,0.00,0.0,meteohub,2013-01-20 10:32:00,
2013-01-20 05:37:00,34.7,38.1,30.09,North,355,0.0,3.0,30,0.00,,,0.00,0.0,meteohub,2013-01-20 10:37:00,
2013-01-20 05:42:00,34.3,38.1,30.09,North,355,0.0,3.0,30,0.00,,,0.00,0.0,meteohub,2013-01-20 10:42:00,
2013-01-20 05:47:00,34.0,38.1,30.09,North,355,0.0,1.0,30,0.00,,,0.00,0.0,meteohub,2013-01-20 10:47:00,
2013-01-20 05:52:00,33.8,38.1,30.09,North,355,0.0,1.0,30,0.00,,,0.00,0.0,meteohub,2013-01-20 10:52:00,
2013-01-20 05:57:00,33.3,38.1,30.09,North,355,0.0,1.0,30,0.00,,,0.00,0.0,meteohub,2013-01-20 10:57:00,
2013-01-20 06:02:00,32.9,38.1,30.09,North,355,0.0,1.0,30,0.00,,,0.00,0.0,meteohub,2013-01-20 11:02:00,
2013-01-20 06:07:00,31.5,38.1,30.09,North,355,0.0,1.0,30,0.00,,,0.00,0.0,meteohub,2013-01-20 11:07:00,
2013-01-20 06:12:00,30.0,38.1,30.09,North,355,0.0,1.0,30,0.00,,,0.00,0.0,meteohub,2013-01-20 11:12:00,
2013-01-20 06:17:00,29.7,38.1,30.09,North,355,1.0,1.0,30,0.00,,,0.00,0.0,meteohub,2013-01-20 11:17:00,
2013-01-20 06:22:00,30.4,38.1,30.09,NNW,327,0.0,4.0,30,0.00,,,0.00,0.0,meteohub,2013-01-20 11:22:00,
2013-01-20 06:27:00,31.3,38.1,30.09,NNW,327,1.0,4.0,30,0.00,,,0.00,0.0,meteohub,2013-01-20 11:27:00,
2013-01-20 06:32:00,32.2,38.1,30.09,North,0,1.0,4.0,30,0.00,,,0.00,0.0,meteohub,2013-01-20 11:32:00,
2013-01-20 06:37:00,33.1,38.1,30.09,North,11,2.0,3.0,30,0.00,,,0.00,0.0,meteohub,2013-01-20 11:37:00,
2013-01-20 06:42:00,33.4,38.1,30.09,NNW,334,0.0,4.0,30,0.00,,,0.00,0.0,meteohub,2013-01-20 11:42:00,
2013-01-20 06:47:00,32.7,38.1,30.09,NNW,334,0.0,4.0,30,0.00,,,0.00,0.0,meteohub,2013-01-20 11:47:00,
2013-01-20 06:52:00,31.6,38.1,30.09,NW,321,0.0,3.0,30,0.00,,,0.00,0.0,meteohub,2013-01-20 11:52:00,
2013-01-20 06:57:00,29.8,38.1,30.09,NW,321,0.0,2.0,30,0.00,,,0.00,0.0,meteohub,2013-01-20 11:57:00,
2013-01-20 07:02:00,28.9,38.1,30.09,NW,321,0.0,2.0,30,0.00,,,0.00,0.0,meteohub,2013-01-20 12:02:00,
2013-01-20 07:07:00,28.8,38.1,30.09,NW,321,0.0,2.0,30,0.00,,,0.00,0.0,meteohub,2013-01-20 12:07:00,
2013-01-20 07:12:00,28.4,38.1,30.09,NW,321,1.0,0.0,30,0.00,,,0.00,0.0,meteohub,2013-01-20 12:12:00,
2013-01-20 07:17:00,28.8,38.1,30.09,NW,321,1.0,1.0,30,0.00,,,0.00,0.0,meteohub,2013-01-20 12:17:00,
2013-01-20 07:22:00,28.2,38.1,30.09,NW,321,0.0,2.0,30,0.00,,,0.00,0.0,meteohub,2013-01-20 12:22:00,
2013-01-20 07:27:00,27.3,38.1,30.10,NW,321,0.0,2.0,30,0.00,,,0.00,0.0,meteohub,2013-01-20 12:27:00,
2013-01-20 07:32:00,27.1,38.3,30.10,NW,321,0.0,2.0,30,0.00,,,0.00,0.0,meteohub,2013-01-20 12:32:00,
2013-01-20 07:37:00,27.3,38.1,30.10,NW,321,0.0,0.0,30,0.00,,,0.00,5.0,meteohub,2013-01-20 12:37:00,
2013-01-20 07:42:00,28.0,38.1,30.10,NW,321,0.0,1.0,30,0.00,,,0.00,7.0,meteohub,2013-01-20 12:42:00,
2013-01-20 07:47:00,28.2,38.1,30.10,NW,321,0.0,1.0,30,0.00,,,0.00,9.0,meteohub,2013-01-20 12:47:00,
2013-01-20 07:52:00,28.8,38.1,30.10,NW,321,0.0,1.0,30,0.00,,,0.00,11.0,meteohub,2013-01-20 12:52:00,
2013-01-20 07:57:00,28.6,38.1,30.10,NW,321,0.0,1.0,30,0.00,,,0.00,16.0,meteohub,2013-01-20 12:57:00,
2013-01-20 08:02:00,28.6,38.1,30.10,NW,321,0.0,0.0,30,0.00,,,0.00,19.0,meteohub,2013-01-20 13:02:00,
2013-01-20 08:07:00,29.1,38.1,30.11,NW,321,0.0,0.0,30,0.00,,,0.00,23.0,meteohub,2013-01-20 13:07:00,
2013-01-20 08:12:00,29.5,38.1,30.11,WSW,254,0.0,2.0,30,0.00,,,0.00,32.0,meteohub,2013-01-20 13:12:00,
2013-01-20 08:17:00,30.2,38.3,30.11,WSW,254,0.0,2.0,30,0.00,,,0.00,42.0,meteohub,2013-01-20 13:17:00,
2013-01-20 08:22:00,31.6,38.3,30.11,WSW,254,0.0,2.0,30,0.00,,,0.00,51.0,meteohub,2013-01-20 13:22:00,
2013-01-20 08:27:00,31.6,38.3,30.11,WSW,254,0.0,1.0,30,0.00,,,0.00,69.0,meteohub,2013-01-20 13:27:00,
2013-01-20 08:37:00,32.0,38.3,30.11,WSW,254,0.0,2.0,30,0.00,,,0.00,102.0,meteohub,2013-01-20 13:37:00,
2013-01-20 08:42:00,30.0,38.3,30.10,WSW,254,0.0,2.0,30,0.00,,,0.00,120.0,meteohub,2013-01-20 13:42:00,
2013-01-20 08:47:00,30.7,38.3,30.10,WSW,254,0.0,2.0,30,0.00,,,0.00,139.0,meteohub,2013-01-20 13:47:00,
2013-01-20 08:52:00,32.0,38.3,30.11,WSW,254,0.0,2.0,30,0.00,,,0.00,155.0,meteohub,2013-01-20 13:52:00,
2013-01-20 08:57:00,32.7,38.3,30.11,WSW,254,0.0,1.0,30,0.00,,,0.00,172.0,meteohub,2013-01-20 13:57:00,
2013-01-20 09:02:00,33.6,38.3,30.11,WSW,254,0.0,0.0,30,0.00,,,0.00,192.0,meteohub,2013-01-20 14:02:00,
2013-01-20 09:07:00,34.2,38.3,30.11,WSW,254,0.0,0.0,30,0.00,,,0.00,211.0,meteohub,2013-01-20 14:07:00,
2013-01-20 09:17:00,34.9,38.3,30.11,WSW,254,0.0,1.0,30,0.00,,,0.00,248.0,meteohub,2013-01-20 14:17:00,
2013-01-20 09:22:00,36.0,38.3,30.11,WSW,254,1.0,1.0,30,0.00,,,0.00,262.0,meteohub,2013-01-20 14:22:00,
2013-01-20 09:27:00,37.4,38.3,30.11,WSW,254,0.0,2.0,30,0.00,,,0.00,278.0,meteohub,2013-01-20 14:27:00,
2013-01-20 09:32:00,38.3,38.3,30.11,NW,307,1.0,2.0,30,0.00,,,0.00,294.0,meteohub,2013-01-20 14:32:00,
2013-01-20 09:37:00,39.0,38.3,30.11,WSW,248,3.0,3.0,30,0.00,,,0.00,309.0,meteohub,2013-01-20 14:37:00,
2013-01-20 09:42:00,38.8,38.3,30.12,NW,311,2.0,4.0,30,0.00,,,0.00,320.0,meteohub,2013-01-20 14:42:00,
2013-01-20 09:47:00,38.8,38.3,30.11,NW,318,0.0,4.0,30,0.00,,,0.00,339.0,meteohub,2013-01-20 14:47:00,
2013-01-20 09:57:00,40.1,38.3,30.11,WNW,291,2.0,4.0,30,0.00,,,0.00,364.0,meteohub,2013-01-20 14:57:00,
2013-01-20 10:02:00,41.2,38.3,30.11,WNW,283,2.0,3.0,30,0.00,,,0.00,380.0,meteohub,2013-01-20 15:02:00,
2013-01-20 10:07:00,41.9,38.3,30.11,WNW,296,2.0,4.0,30,0.00,,,0.00,401.0,meteohub,2013-01-20 15:07:00,
2013-01-20 10:12:00,42.4,38.3,30.11,WNW,286,1.0,4.0,30,0.00,,,0.00,408.0,meteohub,2013-01-20 15:12:00,
2013-01-20 10:17:00,43.2,38.3,30.11,West,279,3.0,4.0,30,0.00,,,0.00,429.0,meteohub,2013-01-20 15:17:00,
2013-01-20 10:22:00,43.3,38.3,30.11,WNW,286,1.0,4.0,30,0.00,,,0.00,432.0,meteohub,2013-01-20 15:22:00,
2013-01-20 10:27:00,44.2,38.3,30.11,West,272,0.0,4.0,30,0.00,,,0.00,446.0,meteohub,2013-01-20 15:27:00,
2013-01-20 10:32:00,44.6,38.3,30.11,WSW,249,2.0,4.0,30,0.00,,,0.00,455.0,meteohub,2013-01-20 15:32:00,
2013-01-20 10:37:00,44.8,38.3,30.11,NW,325,3.0,5.0,30,0.00,,,0.00,468.0,meteohub,2013-01-20 15:37:00,
2013-01-20 10:47:00,45.7,38.3,30.11,WSW,249,3.0,6.0,30,0.00,,,0.00,490.0,meteohub,2013-01-20 15:47:00,
2013-01-20 10:52:00,46.0,38.3,30.10,WSW,253,3.0,6.0,30,0.00,,,0.00,501.0,meteohub,2013-01-20 15:52:00,
2013-01-20 10:57:00,46.0,38.5,30.10,NNW,346,2.0,6.0,30,0.00,,,0.00,512.0,meteohub,2013-01-20 15:57:00,
2013-01-20 11:02:00,46.0,38.5,30.10,NW,316,4.0,6.0,30,0.00,,,0.00,520.0,meteohub,2013-01-20 16:02:00,
2013-01-20 11:07:00,46.4,38.5,30.10,WNW,289,2.0,6.0,30,0.00,,,0.00,531.0,meteohub,2013-01-20 16:07:00,
2013-01-20 11:12:00,46.9,38.5,30.09,WSW,252,1.0,6.0,30,0.00,,,0.00,541.0,meteohub,2013-01-20 16:12:00,
2013-01-20 11:17:00,47.5,38.5,30.09,WSW,245,2.0,6.0,30,0.00,,,0.00,550.0,meteohub,2013-01-20 16:17:00,
2013-01-20 11:22:00,47.7,38.5,30.09,West,268,3.0,5.0,30,0.00,,,0.00,557.0,meteohub,2013-01-20 16:22:00,
2013-01-20 11:27:00,47.5,38.5,30.09,WNW,285,2.0,5.0,30,0.00,,,0.00,568.0,meteohub,2013-01-20 16:27:00,
2013-01-20 11:32:00,47.1,38.5,30.09,SW,219,3.0,6.0,30,0.00,,,0.00,575.0,meteohub,2013-01-20 16:32:00,
2013-01-20 11:37:00,47.7,38.5,30.08,WSW,254,6.0,6.0,30,0.00,,,0.00,582.0,meteohub,2013-01-20 16:37:00,
2013-01-20 11:42:00,48.6,38.5,30.08,SW,236,3.0,6.0,30,0.00,,,0.00,589.0,meteohub,2013-01-20 16:42:00,
2013-01-20 11:47:00,48.9,38.5,30.08,WSW,258,4.0,7.0,30,0.00,,,0.00,596.0,meteohub,2013-01-20 16:47:00,
2013-01-20 11:52:00,48.9,38.5,30.07,NW,304,0.0,7.0,30,0.00,,,0.00,603.0,meteohub,2013-01-20 16:52:00,
2013-01-20 11:57:00,48.9,38.5,30.07,WNW,299,1.0,6.0,30,0.00,,,0.00,606.0,meteohub,2013-01-20 16:57:00,
2013-01-20 12:02:00,48.9,38.5,30.06,NNW,336,3.0,6.0,30,0.00,,,0.00,612.0,meteohub,2013-01-20 17:02:00,
2013-01-20 12:07:00,50.2,38.5,30.06,NNE,19,4.0,6.0,30,0.00,,,0.00,617.0,meteohub,2013-01-20 17:07:00,
2013-01-20 12:12:00,49.8,38.5,30.06,WNW,298,2.0,7.0,30,0.00,,,0.00,621.0,meteohub,2013-01-20 17:12:00,
2013-01-20 12:17:00,50.5,38.5,30.06,West,262,0.0,7.0,30,0.00,,,0.00,621.0,meteohub,2013-01-20 17:17:00,
2013-01-20 12:22:00,51.3,38.5,30.06,SSW,198,4.0,7.0,30,0.00,,,0.00,624.0,meteohub,2013-01-20 17:22:00,
2013-01-20 12:27:00,51.3,39.4,30.05,WNW,291,1.0,5.0,31,0.00,,,0.00,626.0,meteohub,2013-01-20 17:27:00,
2013-01-20 12:32:00,51.4,39.4,30.05,WSW,257,3.0,5.0,31,0.00,,,0.00,631.0,meteohub,2013-01-20 17:32:00,
2013-01-20 12:37:00,51.6,39.4,30.04,West,280,2.0,6.0,31,0.00,,,0.00,629.0,meteohub,2013-01-20 17:37:00,
2013-01-20 12:42:00,52.0,39.4,30.04,WSW,238,5.0,6.0,31,0.00,,,0.00,629.0,meteohub,2013-01-20 17:42:00,
2013-01-20 12:47:00,52.5,39.4,30.04,SW,236,1.0,6.0,31,0.00,,,0.00,629.0,meteohub,2013-01-20 17:47:00,
2013-01-20 12:52:00,52.9,39.4,30.04,NW,314,1.0,6.0,31,0.00,,,0.00,631.0,meteohub,2013-01-20 17:52:00,
2013-01-20 12:57:00,53.1,39.4,30.04,NW,325,9.0,11.0,31,0.00,,,0.00,624.0,meteohub,2013-01-20 17:57:00,
2013-01-20 13:02:00,53.1,39.4,30.04,NNW,333,6.0,11.0,31,0.00,,,0.00,624.0,meteohub,2013-01-20 18:02:00,
2013-01-20 13:07:00,52.5,39.4,30.03,West,261,4.0,11.0,31,0.00,,,0.00,626.0,meteohub,2013-01-20 18:07:00,
2013-01-20 13:12:00,52.9,38.5,30.03,NNW,344,4.0,11.0,30,0.00,,,0.00,624.0,meteohub,2013-01-20 18:12:00,
2013-01-20 13:17:00,52.5,38.5,30.03,NW,304,6.0,12.0,30,0.00,,,0.00,624.0,meteohub,2013-01-20 18:17:00,
2013-01-20 13:22:00,52.5,38.5,30.03,West,275,2.0,12.0,30,0.00,,,0.00,621.0,meteohub,2013-01-20 18:22:00,
2013-01-20 13:27:00,52.9,38.5,30.03,West,275,10.0,12.0,30,0.00,,,0.00,619.0,meteohub,2013-01-20 18:27:00,
2013-01-20 13:32:00,53.1,38.5,30.03,West,261,6.0,11.0,30,0.00,,,0.00,615.0,meteohub,2013-01-20 18:32:00,
2013-01-20 13:37:00,53.1,38.5,30.03,NNW,331,6.0,11.0,30,0.00,,,0.00,612.0,meteohub,2013-01-20 18:37:00,
2013-01-20 13:42:00,53.1,38.5,30.02,WNW,297,8.0,11.0,30,0.00,,,0.00,606.0,meteohub,2013-01-20 18:42:00,
2013-01-20 13:47:00,53.4,38.5,30.02,WNW,284,2.0,10.0,30,0.00,,,0.00,601.0,meteohub,2013-01-20 18:47:00,
2013-01-20 13:52:00,53.2,38.5,30.02,NW,315,7.0,10.0,30,0.00,,,0.00,596.0,meteohub,2013-01-20 18:52:00,
2013-01-20 13:57:00,52.7,38.5,30.02,NW,321,8.0,13.0,30,0.00,,,0.00,592.0,meteohub,2013-01-20 18:57:00,
2013-01-20 14:02:00,52.5,38.5,30.01,West,271,5.0,14.0,30,0.00,,,0.00,585.0,meteohub,2013-01-20 19:02:00,
2013-01-20 14:07:00,52.9,38.5,30.02,NNW,335,9.0,14.0,30,0.00,,,0.00,577.0,meteohub,2013-01-20 19:07:00,
2013-01-20 14:12:00,53.4,38.5,30.01,NE,51,6.0,13.0,30,0.00,,,0.00,571.0,meteohub,2013-01-20 19:12:00,
2013-01-20 14:17:00,54.0,38.5,30.01,WNW,284,12.0,13.0,30,0.00,,,0.00,563.0,meteohub,2013-01-20 19:17:00,
2013-01-20 14:22:00,53.4,38.5,30.01,North,355,6.0,14.0,30,0.00,,,0.00,555.0,meteohub,2013-01-20 19:22:00,
2013-01-20 14:32:00,53.1,38.5,30.02,NNW,338,3.0,16.0,30,0.00,,,0.00,538.0,meteohub,2013-01-20 19:32:00,
2013-01-20 14:37:00,52.9,38.5,30.01,North,11,5.0,16.0,30,0.00,,,0.00,529.0,meteohub,2013-01-20 19:37:00,
2013-01-20 14:42:00,53.1,38.5,30.01,West,261,5.0,16.0,30,0.00,,,0.00,519.0,meteohub,2013-01-20 19:42:00,
2013-01-20 14:47:00,53.4,38.5,30.01,NW,324,6.0,11.0,30,0.00,,,0.00,508.0,meteohub,2013-01-20 19:47:00,
2013-01-20 14:52:00,53.1,38.5,30.01,ENE,71,1.0,13.0,30,0.00,,,0.00,497.0,meteohub,2013-01-20 19:52:00,
2013-01-20 14:57:00,53.1,38.5,30.01,NW,311,6.0,13.0,30,0.00,,,0.00,485.0,meteohub,2013-01-20 19:57:00,
2013-01-20 15:02:00,53.4,38.5,30.01,West,274,6.0,13.0,30,0.00,,,0.00,475.0,meteohub,2013-01-20 20:02:00,
2013-01-20 15:07:00,53.4,38.5,30.00,NW,319,0.0,12.0,30,0.00,,,0.00,464.0,meteohub,2013-01-20 20:07:00,
2013-01-20 15:12:00,54.0,38.5,30.00,WNW,287,4.0,12.0,30,0.00,,,0.00,450.0,meteohub,2013-01-20 20:12:00,
2013-01-20 15:17:00,54.1,38.5,30.00,NNE,26,1.0,9.0,30,0.00,,,0.00,438.0,meteohub,2013-01-20 20:17:00,
2013-01-20 15:22:00,54.0,38.5,30.00,NW,311,3.0,11.0,30,0.00,,,0.00,425.0,meteohub,2013-01-20 20:22:00,
2013-01-20 15:27:00,54.0,38.5,30.01,NNW,340,5.0,11.0,30,0.00,,,0.00,411.0,meteohub,2013-01-20 20:27:00,
2013-01-20 15:32:00,54.0,38.5,30.01,West,281,3.0,10.0,30,0.00,,,0.00,399.0,meteohub,2013-01-20 20:32:00,
2013-01-20 15:37:00,54.0,38.5,30.01,WSW,250,4.0,10.0,30,0.00,,,0.00,385.0,meteohub,2013-01-20 20:37:00,
2013-01-20 15:47:00,53.8,38.5,30.01,WNW,289,7.0,10.0,30,0.00,,,0.00,359.0,meteohub,2013-01-20 20:47:00,
2013-01-20 15:52:00,53.4,38.5,30.01,WNW,290,7.0,11.0,30,0.00,,,0.00,343.0,meteohub,2013-01-20 20:52:00,
2013-01-20 15:57:00,53.2,38.5,30.01,NW,317,9.0,13.0,30,0.00,,,0.00,329.0,meteohub,2013-01-20 20:57:00,
2013-01-20 16:02:00,53.2,38.5,30.01,West,261,6.0,13.0,30,0.00,,,0.00,313.0,meteohub,2013-01-20 21:02:00,
2013-01-20 16:07:00,53.1,38.5,30.01,North,355,6.0,13.0,30,0.00,,,0.00,297.0,meteohub,2013-01-20 21:07:00,
2013-01-20 16:12:00,53.1,38.5,30.01,SW,215,3.0,11.0,30,0.00,,,0.00,283.0,meteohub,2013-01-20 21:12:00,
2013-01-20 16:17:00,52.9,38.5,30.01,NW,315,5.0,11.0,30,0.00,,,0.00,265.0,meteohub,2013-01-20 21:17:00,
2013-01-20 16:27:00,52.5,38.5,30.02,West,275,2.0,12.0,30,0.00,,,0.00,227.0,meteohub,2013-01-20 21:27:00,
2013-01-20 16:37:00,52.0,38.5,30.02,WSW,258,11.0,11.0,30,0.00,,,0.00,188.0,meteohub,2013-01-20 21:37:00,
2013-01-20 16:42:00,51.8,38.5,30.02,West,281,2.0,12.0,30,0.00,,,0.00,167.0,meteohub,2013-01-20 21:42:00,
2013-01-20 16:52:00,51.3,38.5,30.03,North,355,0.0,12.0,30,0.00,,,0.00,132.0,meteohub,2013-01-20 21:52:00,
2013-01-20 17:02:00,50.5,38.5,30.03,West,261,5.0,11.0,30,0.00,,,0.00,95.0,meteohub,2013-01-20 22:02:00,
2013-01-20 17:12:00,49.8,38.5,30.03,WNW,286,5.0,11.0,30,0.00,,,0.00,62.0,meteohub,2013-01-20 22:12:00,
2013-01-20 17:17:00,49.5,38.5,30.03,West,280,4.0,11.0,30,0.00,,,0.00,39.0,meteohub,2013-01-20 22:17:00,
2013-01-20 17:27:00,48.9,38.5,30.04,WNW,288,7.0,10.0,30,0.00,,,0.00,16.0,meteohub,2013-01-20 22:27:00,
2013-01-20 17:32:00,48.7,38.5,30.04,West,270,5.0,9.0,30,0.00,,,0.00,14.0,meteohub,2013-01-20 22:32:00,
2013-01-20 17:42:00,48.2,38.5,30.04,NW,317,0.0,9.0,30,0.00,,,0.00,9.0,meteohub,2013-01-20 22:42:00,
2013-01-20 17:47:00,47.8,38.5,30.04,WNW,298,7.0,8.0,30,0.00,,,0.00,5.0,meteohub,2013-01-20 22:47:00,
2013-01-20 17:52:00,47.5,38.5,30.04,NNE,24,2.0,10.0,30,0.00,,,0.00,0.0,meteohub,2013-01-20 22:52:00,
2013-01-20 18:02:00,46.9,38.5,30.05,WSW,249,3.0,10.0,30,0.00,,,0.00,0.0,meteohub,2013-01-20 23:02:00,
2013-01-20 18:07:00,46.4,38.5,30.05,SW,230,0.0,10.0,30,0.00,,,0.00,0.0,meteohub,2013-01-20 23:07:00,
2013-01-20 18:12:00,45.1,38.5,30.05,West,260,3.0,10.0,30,0.00,,,0.00,0.0,meteohub,2013-01-20 23:12:00,
2013-01-20 18:17:00,44.8,38.5,30.05,West,267,1.0,9.0,30,0.00,,,0.00,0.0,meteohub,2013-01-20 23:17:00,
2013-01-20 18:27:00,44.1,38.5,30.05,West,267,0.0,7.0,30,0.00,,,0.00,0.0,meteohub,2013-01-20 23:27:00,
2013-01-20 18:32:00,43.9,38.5,30.05,West,267,0.0,3.0,30,0.00,,,0.00,0.0,meteohub,2013-01-20 23:32:00,
2013-01-20 18:37:00,43.3,38.5,30.05,WNW,293,0.0,2.0,30,0.00,,,0.00,0.0,meteohub,2013-01-20 23:37:00,
2013-01-20 18:47:00,43.3,38.5,30.05,NNW,338,2.0,4.0,30,0.00,,,0.00,0.0,meteohub,2013-01-20 23:47:00,
2013-01-20 18:52:00,43.3,38.5,30.06,NNW,345,4.0,5.0,30,0.00,,,0.00,0.0,meteohub,2013-01-20 23:52:00,
2013-01-20 18:57:00,43.3,38.5,30.06,NNW,342,2.0,5.0,30,0.00,,,0.00,0.0,meteohub,2013-01-20 23:57:00,
2013-01-20 19:02:00,43.2,38.5,30.06,North,349,2.0,5.0,30,0.00,,,0.00,0.0,meteohub,2013-01-21 00:02:00,
2013-01-20 19:07:00,43.2,38.5,30.05,NNW,335,5.0,6.0,30,0.00,,,0.00,0.0,meteohub,2013-01-21 00:07:00,
2013-01-20 19:12:00,43.2,38.3,30.06,NNW,343,2.0,6.0,30,0.00,,,0.00,0.0,meteohub,2013-01-21 00:12:00,
2013-01-20 19:22:00,43.0,38.3,30.06,North,0,1.0,6.0,30,0.00,,,0.00,0.0,meteohub,2013-01-21 00:22:00,
2013-01-20 19:27:00,43.0,38.3,30.06,North,355,0.0,5.0,30,0.00,,,0.00,0.0,meteohub,2013-01-21 00:27:00,
2013-01-20 19:37:00,41.5,39.2,30.06,NNW,336,0.0,4.0,31,0.00,,,0.00,0.0,meteohub,2013-01-21 00:37:00,
2013-01-20 19:47:00,40.6,39.2,30.06,NNW,336,0.0,2.0,31,0.00,,,0.00,0.0,meteohub,2013-01-21 00:47:00,
2013-01-20 19:57:00,39.7,39.2,30.06,NNW,344,3.0,3.0,31,0.00,,,0.00,0.0,meteohub,2013-01-21 00:57:00,
2013-01-20 20:02:00,40.1,39.2,30.06,NNW,344,0.0,4.0,31,0.00,,,0.00,0.0,meteohub,2013-01-21 01:02:00,
2013-01-20 20:07:00,40.5,39.2,30.06,NNW,346,3.0,6.0,31,0.00,,,0.00,0.0,meteohub,2013-01-21 01:07:00,
2013-01-20 20:12:00,40.5,39.2,30.06,North,0,3.0,6.0,31,0.00,,,0.00,0.0,meteohub,2013-01-21 01:12:00,
2013-01-20 20:17:00,40.3,39.2,30.06,North,350,0.0,4.0,31,0.00,,,0.00,0.0,meteohub,2013-01-21 01:17:00,
2013-01-20 20:22:00,39.9,39.2,30.06,North,355,3.0,4.0,31,0.00,,,0.00,0.0,meteohub,2013-01-21 01:22:00,
2013-01-20 20:27:00,39.7,39.2,30.06,NNW,338,0.0,4.0,31,0.00,,,0.00,0.0,meteohub,2013-01-21 01:27:00,
2013-01-20 20:32:00,39.0,39.2,30.06,WNW,288,0.0,3.0,31,0.00,,,0.00,0.0,meteohub,2013-01-21 01:32:00,
2013-01-20 20:42:00,37.8,39.2,30.06,NNW,338,0.0,2.0,31,0.00,,,0.00,0.0,meteohub,2013-01-21 01:42:00,
2013-01-20 20:47:00,37.6,39.2,30.06,WNW,290,1.0,2.0,31,0.00,,,0.00,0.0,meteohub,2013-01-21 01:47:00,
2013-01-20 20:52:00,37.6,39.2,30.06,North,355,0.0,2.0,31,0.00,,,0.00,0.0,meteohub,2013-01-21 01:52:00,
2013-01-20 21:02:00,34.3,39.2,30.06,North,0,1.0,2.0,31,0.00,,,0.00,0.0,meteohub,2013-01-21 02:02:00,
2013-01-20 21:07:00,34.0,39.2,30.06,NE,34,0.0,2.0,31,0.00,,,0.00,0.0,meteohub,2013-01-21 02:07:00,
2013-01-20 21:17:00,35.1,39.2,30.06,ENE,63,1.0,2.0,31,0.00,,,0.00,0.0,meteohub,2013-01-21 02:17:00,
2013-01-20 21:22:00,35.1,39.2,30.06,East,89,1.0,3.0,31,0.00,,,0.00,0.0,meteohub,2013-01-21 02:22:00,
2013-01-20 21:32:00,34.9,39.2,30.06,East,89,1.0,2.0,31,0.00,,,0.00,0.0,meteohub,2013-01-21 02:32:00,
2013-01-20 21:42:00,34.7,39.2,30.06,East,89,0.0,2.0,31,0.00,,,0.00,0.0,meteohub,2013-01-21 02:42:00,
2013-01-20 21:47:00,34.3,39.2,30.06,East,88,0.0,2.0,31,0.00,,,0.00,0.0,meteohub,2013-01-21 02:47:00,
2013-01-20 21:52:00,34.2,39.2,30.06,East,88,0.0,1.0,31,0.00,,,0.00,0.0,meteohub,2013-01-21 02:52:00,
2013-01-20 21:57:00,34.2,39.2,30.06,East,88,0.0,1.0,31,0.00,,,0.00,0.0,meteohub,2013-01-21 02:57:00,
2013-01-20 22:07:00,33.8,39.2,30.06,East,88,0.0,0.0,31,0.00,,,0.00,0.0,meteohub,2013-01-21 03:07:00,
2013-01-20 22:17:00,33.4,39.2,30.06,East,88,0.0,0.0,31,0.00,,,0.00,0.0,meteohub,2013-01-21 03:17:00,
2013-01-20 22:22:00,33.3,39.2,30.06,East,88,0.0,0.0,31,0.00,,,0.00,0.0,meteohub,2013-01-21 03:22:00,
2013-01-20 22:32:00,33.4,39.2,30.06,East,88,0.0,0.0,31,0.00,,,0.00,0.0,meteohub,2013-01-21 03:32:00,
2013-01-20 22:42:00,33.3,39.0,30.06,East,88,0.0,0.0,31,0.00,,,0.00,0.0,meteohub,2013-01-21 03:42:00,
2013-01-20 22:47:00,32.7,39.0,30.06,East,88,0.0,0.0,31,0.00,,,0.00,0.0,meteohub,2013-01-21 03:47:00,
2013-01-20 22:52:00,32.5,39.0,30.06,East,88,0.0,0.0,31,0.00,,,0.00,0.0,meteohub,2013-01-21 03:52:00,
2013-01-20 23:02:00,32.4,39.0,30.06,East,88,0.0,0.0,31,0.00,,,0.00,0.0,meteohub,2013-01-21 04:02:00,
2013-01-20 23:07:00,32.2,39.0,30.06,East,88,0.0,0.0,31,0.00,,,0.00,0.0,meteohub,2013-01-21 04:07:00,
2013-01-20 23:12:00,32.2,39.0,30.06,East,88,0.0,0.0,31,0.00,,,0.00,0.0,meteohub,2013-01-21 04:12:00,
2013-01-20 23:17:00,31.3,39.0,30.06,East,88,0.0,0.0,31,0.00,,,0.00,0.0,meteohub,2013-01-21 04:17:00,
2013-01-20 23:27:00,30.9,39.0,30.06,East,89,0.0,0.0,31,0.00,,,0.00,0.0,meteohub,2013-01-21 04:27:00,
2013-01-20 23:32:00,31.6,39.0,30.06,East,88,0.0,0.0,31,0.00,,,0.00,0.0,meteohub,2013-01-21 04:32:00,
2013-01-20 23:37:00,32.2,39.0,30.06,East,88,1.0,1.0,31,0.00,,,0.00,0.0,meteohub,2013-01-21 04:37:00,
2013-01-20 23:42:00,32.5,39.0,30.06,East,88,0.0,2.0,31,0.00,,,0.00,0.0,meteohub,2013-01-21 04:42:00,
2013-01-20 23:52:00,30.9,39.0,30.06,ESE,107,0.0,2.0,31,0.00,,,0.00,0.0,meteohub,2013-01-21 04:52:00,